Miscellaneous Local Product
Issued by NWS North Platte, NE

Home | Current Version | Previous Version | Graphics & Text | Print | Product List | Glossary On
Versions: 1 2 3 4 5 6 7 8 9 10 11 12 13 14 15 16 17 18 19 20 21 22 23 24 25 26 27 28 29 30 31 32 33 34 35 36 37 38 39 40 41 42 43 44 45 46 47 48 49 50
000
AXUS43 KLBF 290110
MISLBF


WESTERN AND NORTH CENTRAL NEBRASKA HOURLY WEATHER ROUNDUP
NATIONAL WEATHER SERVICE NORTH PLATTE NE
800 PM CDT TUE OCT 28 2014

***STATIONS NOT REPORTING VARIABLES SUCH AS SKY/WEATHER OR
PRESSURE ARE PROVIDED BY THE NEBRASKA DEPARTMENT OF
ROADS...RAWS...AND APRS NETWORKS...AND ARE NOT UNDER
NATIONAL WEATHER SERVICE QUALITY CONTROL***

...OBSERVATIONS IN AND NEAR THE EASTERN PANHANDLE OF NEBRASKA...

CITY           SKY/WX    TMP DP  RH WIND       PRES   REMARKS
PINE RIDGE     CLEAR     35  22  58 E5        30.15R WCI  31
CHADRON        CLEAR     36  22  56 CALM      30.14R
ALLIANCE       PTCLDY    37  25  61 NE6       30.14R WCI  32
SIDNEY         CLEAR     36  22  56 SE3       30.17R
WHITECLAY        N/A     36  20  51 CALM        N/A
RUSHVILLE        N/A     36  12  38 W6          N/A  WCI  31
CRESCENT LAKE    N/A     44  21  39 N6          N/A
LISCO            N/A     40  22  48 CALM        N/A
LEWELLEN         N/A     36  13  39 CALM        N/A
$$

...OBSERVATIONS IN NORTH CENTRAL NEBRASKA...

CITY           SKY/WX    TMP DP  RH WIND       PRES   REMARKS
VALENTINE      CLEAR     42  23  46 N8        30.15R
THEDFORD       CLEAR     42  18  38 CALM      30.16R
AINSWORTH      CLEAR     37  23  56 N9        30.15R WCI  30
O`NEILL        CLEAR     38  30  72 NW6       30.15R WCI  34
ORD            CLEAR     38  23  55 NW5       30.14R WCI  34
BROKEN BOW     CLEAR     39  21  48 N9        30.14R WCI  33
BROWNLEE         N/A     44  18  35 N5          N/A
SPRINGVIEW       N/A     40  27  60 CALM        N/A
BREWSTER         N/A     42  20  42 W3          N/A
ROSE             N/A     42  27  53 CALM        N/A
NEWPORT          N/A     40  27  59 W3          N/A
SARGENT          N/A     42  22  44 CALM        N/A
COMSTOCK         N/A     42  21  43 CALM        N/A
CHAMBERS         N/A     38  21  49 CALM        N/A
EWING            N/A     44  30  58 CALM        N/A
$$

...OBSERVATIONS IN SOUTHWEST NEBRASKA AND FAR NORTHEAST COLORADO...

CITY           SKY/WX    TMP DP  RH WIND       PRES   REMARKS
WRAY           FAIR      48  20  33 E3        30.16R
HOLYOKE        FAIR      41  25  52 NE3       30.16R
IMPERIAL       CLEAR     44  23  43 NE6       30.16R
OGALLALA       CLEAR     40  23  49 W5        30.16R
NORTH PLATTE   CLEAR     38  22  52 N5        30.15R WCI  34
MCCOOK         CLEAR     51  23  33 CALM      30.16R
LEXINGTON      CLEAR     43  25  48 NW3       30.15R
SUTHERLAND       N/A     38  11  32 CALM        N/A
BRADY            N/A     43  24  46 CALM        N/A
GOTHENBURG       N/A     52  21  29 NW5         N/A
CALLAWAY         N/A     48  24  38 N6          N/A
$$

...SOME WEATHER OBSERVATIONS FROM AROUND THE REGION...

CITY           SKY/WX    TMP DP  RH WIND       PRES   REMARKS
DENVER         PTCLDY    45  20  36 E8        30.16R
LARAMIE        PTCLDY    42   9  25 SW12      30.19R
CHEYENNE       CLEAR     44  18  35 W8        30.17R
SCOTTSBLUFF    PTCLDY    44  27  51 CALM      30.15R
RAPID CITY     CLEAR     39  22  50 CALM      30.14R
PIERRE         CLEAR     36  27  69 N10       30.14R WCI  28
WINNER           N/A     38  26  62 NW8       30.15R WCI  32
SIOUX FALLS    CLOUDY    44  32  62 NW10G21   30.09R
OMAHA          CLEAR     44  33  65 NW8       30.13R
GRAND ISLAND   CLEAR     44  27  51 CALM      30.15R
KANSAS CITY    CLEAR     54  33  45 W6        30.12R
WICHITA        CLEAR     52  35  52 S5        30.15R
HAYS           CLEAR     48  28  46 CALM      30.17S
LIBERAL        CLEAR     55  27  33 SE6       30.19R
GOODLAND       PTCLDY    42  25  50 E7        30.18R
$$



USA.gov is the U.S. government's official web portal to all federal, state and local government web resources and services.